Home > Weather > Fredrikstad > Past weeks

Flag for Norway Past Weather in Fredrikstad, Norway — Yesterday and Last 2 Weeks

Now
61 °F

Passing clouds.


Feels Like: 61 °F
Forecast: 54 / 59 °F
Wind: 6 mph from Southwest

Location: Rygge

Current Time: Aug 27, 2016 at 10:54:08 PM

Latest Report: Aug 27, 2016 at 9:50 PM


Visibility: N/A

Pressure: 30.07 "Hg

Humidity: 63%

Dew Point: 48 °F

Location of FredrikstadLocation

Past Weather in Fredrikstad — Graph

°F

Fredrikstad Temperature Yesterday

Maximum temperature yesterday: 72 °F (at 12:20 PM)
Minimum temperature yesterday: 61 °F (at 11:20 PM)
Average temperature yesterday: 65 °F

High & Low Weather Summary for the Past Weeks

 TemperatureHumidityPressure
High73 °F (Aug 16, 5:50 PM)100% (Aug 12, 9:50 PM)30.27 "Hg (Aug 12, 9:50 PM)
Low50 °F (Aug 17, 1:50 AM)38% (Aug 16, 6:20 PM)29.62 "Hg (Aug 12, 11:20 PM)
Average62 °F77%30.00 "Hg
* Reported Aug 12 9:20 PM — Aug 27 9:20 PM, Fredrikstad, Weather by CustomWeather, © 2016

Note: Actual official high and low records may vary slightly from our data, if they occured in-between our weather recording intervals... More about our weather records

Advertising

Fredrikstad Weather History for the Previous 24 Hours

Scroll right to see more
 ConditionsComfort  
Time TempWeatherWind HumidityBarometerVisibility
9:20 PM
Sat, Aug 27
63 °FSunny.6 mph59%30.07 "Hg10 mi
8:50 PM63 °FSunny.5 mph59%30.07 "Hg10 mi
8:20 PM64 °FSunny.6 mph56%30.07 "Hg10 mi
7:50 PM66 °FSunny.6 mph52%30.07 "Hg10 mi
7:20 PM68 °FSunny.6 mph49%30.07 "Hg10 mi
6:50 PM68 °FPassing clouds.7 mph49%30.04 "HgN/A
6:20 PM70 °FSunny.7 mph40%30.04 "Hg10 mi
5:50 PM70 °FPassing clouds.8 mph40%30.07 "HgN/A
5:20 PM70 °FPassing clouds.8 mph40%30.07 "HgN/A
4:50 PM68 °FSunny.8 mph46%30.07 "Hg10 mi
4:20 PM70 °FSunny.9 mph40%30.07 "Hg10 mi
3:50 PM70 °FSunny.8 mph43%30.07 "Hg10 mi
3:20 PM68 °FSunny.8 mph43%30.07 "Hg10 mi
2:50 PM70 °FPassing clouds.7 mph43%30.04 "HgN/A
2:20 PM70 °FPassing clouds.10 mph43%30.04 "HgN/A
1:50 PM70 °FPassing clouds.8 mph46%30.04 "HgN/A
1:20 PM68 °FPassing clouds.12 mph49%30.04 "HgN/A
12:50 PM66 °FPassing clouds.10 mph52%30.04 "HgN/A
12:20 PM66 °FSunny.13 mph52%30.04 "Hg10 mi
11:50 AM64 °FSunny.13 mph56%30.04 "Hg10 mi
11:20 AM64 °FPassing clouds.8 mph56%30.01 "HgN/A
10:50 AM63 °FPassing clouds.12 mph59%30.01 "HgN/A
10:20 AM63 °FSunny.14 mph59%30.01 "Hg10 mi
9:50 AM61 °FSunny.12 mph63%30.01 "Hg10 mi
9:20 AM61 °FSunny.14 mph68%29.98 "Hg10 mi
8:50 AM59 °FPassing clouds.12 mph72%29.98 "HgN/A
8:20 AM59 °FClear.10 mph72%29.95 "HgN/A
7:50 AM57 °FPassing clouds.10 mph77%29.95 "HgN/A
7:20 AM57 °FSunny.9 mph77%29.95 "Hg10 mi
6:50 AM57 °FClear.12 mph77%29.92 "Hg10 mi
6:20 AM57 °FPassing clouds.10 mph77%29.92 "HgN/A
5:50 AM57 °FCool.12 mph77%29.92 "HgN/A
5:20 AM57 °FCool.12 mph77%29.92 "HgN/A
4:50 AM57 °FCool.10 mph77%29.89 "HgN/A
4:20 AM57 °FCool.12 mph77%29.89 "HgN/A
3:50 AM59 °FCool.13 mph77%29.89 "HgN/A
3:20 AM59 °FCool.14 mph77%29.89 "HgN/A
2:50 AM59 °FCool.14 mph77%29.89 "HgN/A
2:20 AM59 °FCool.14 mph82%29.89 "HgN/A
1:50 AM59 °FCool.14 mph82%29.86 "HgN/A
1:20 AM61 °FClear.16 mph77%29.86 "Hg10 mi
12:50 AM61 °FClear.14 mph77%29.86 "Hg10 mi
11:50 PM
Fri, Aug 26
61 °FCool.14 mph77%29.86 "HgN/A
11:20 PM61 °FCool.13 mph77%29.83 "HgN/A
10:50 PM63 °FClear.10 mph73%29.83 "Hg10 mi
10:20 PM64 °FClear.13 mph73%29.80 "Hg10 mi
Weather by CustomWeather, © 2016

See weather overviewHow to use our weather pages